FW3046 Weather Reports


time (UTC)temp
F
wind
direction
speed
knots
gust
knots
rain 1hr
in
rain 24hr
in
rain mn
in
humidity
%
barometer
mb
20260508084525 42 154 0.0 0.0 0.00 0.00 0.00 85 1013.1
20260508083026 43 154 0.0 0.0 0.00 0.00 0.00 84 1013.3
20260508081520 43 153 0.0 0.0 0.00 0.00 0.00 83 1013.4
20260508080027 44 154 0.0 0.0 0.00 0.00 0.00 82 1013.4
20260508074520 45 154 0.0 0.9 0.00 0.00 0.00 82 1013.5
20260508073015 46 154 0.0 0.9 0.00 0.00 0.00 81 1013.5
20260508071514 46 154 0.0 3.5 0.00 0.00 0.00 80 1013.6
20260508070012 47 154 0.0 3.5 0.00 0.00 0.00 73 1013.9
20260508064512 45 153 0.0 0.9 0.00 0.00 0.00 75 1013.7
20260508063010 44 154 0.0 0.0 0.00 0.00 0.00 77 1013.7
20260508061509 44 153 0.0 0.0 0.00 0.00 0.00 78 1013.7
20260508060007 44 154 0.0 0.0 0.00 0.00 0.00 78 1013.8
20260508054505 44 154 0.0 0.0 0.00 0.00 0.00 77 1013.9
20260508053003 45 154 0.0 0.0 0.00 0.00 0.00 75 1014.2
20260508051501 45 154 0.0 0.0 0.00 0.00 0.00 74 1014.1
20260508050100 45 154 0.0 0.0 0.00 0.00 0.00 73 1014.4
20260508044603 46 154 0.0 0.0 0.00 0.00 0.00 72 1014.3
20260508043055 46 154 0.0 0.0 0.00 0.00 0.00 71 1014.2
20260508041559 46 153 0.0 0.9 0.00 0.00 0.00 71 1014.3
20260508040057 46 154 0.0 0.9 0.00 0.00 0.00 70 1014.4
20260508034601 46 154 0.0 0.9 0.00 0.00 0.00 70 1014.5
20260508033051 43 154 0.0 1.7 0.00 0.00 0.00 74 1014.4
20260508031559 40 154 0.0 0.0 0.00 0.00 0.00 81 1014.5
20260508030107 41 154 0.0 0.0 0.00 0.00 0.00 79 1014.4
20260508024549 42 154 0.0 0.0 0.00 0.00 0.00 77 1014.3
20260508023049 42 154 0.0 0.0 0.00 0.00 0.00 76 1014.0
20260508021549 42 154 0.0 0.0 0.00 0.00 0.00 75 1014.1
20260508020048 42 154 0.0 0.0 0.00 0.00 0.00 74 1014.1
20260508014547 43 154 0.0 0.0 0.00 0.00 0.00 72 1014.0
20260508013146 44 154 0.0 0.0 0.00 0.00 0.00 68 1014.0
20260508011554 45 154 0.0 0.0 0.00 0.00 0.00 66 1013.9
20260508010046 46 154 0.0 0.0 0.00 0.00 0.00 62 1013.7
20260508004544 48 154 0.0 0.0 0.00 0.00 0.00 59 1013.7
20260508003058 50 153 0.0 1.7 0.00 0.00 0.00 55 1013.5
20260508001544 51 154 0.0 0.9 0.00 0.00 0.00 54 1013.4
20260508000044 52 153 0.0 1.7 0.00 0.00 0.00 53 1013.1
20260507234542 53 154 0.9 4.3 0.00 0.00 0.00 51 1013.1
20260507233042 54 154 0.0 3.5 0.00 0.00 0.00 49 1013.1
20260507231551 55 154 0.9 3.5 0.00 0.00 0.00 49 1013.1
20260507230041 55 154 0.9 4.3 0.00 0.00 0.00 50 1013.2
20260507224554 56 154 0.9 4.3 0.00 0.00 0.00 49 1013.3
20260507223045 55 154 0.9 4.3 0.00 0.00 0.00 51 1013.3
20260507221542 55 154 0.9 3.5 0.00 0.00 0.00 53 1013.2
20260507220039 54 153 0.9 3.5 0.00 0.00 0.00 55 1013.1
20260507214540 54 153 1.7 4.3 0.00 0.00 0.00 56 1013.0
20260507213046 55 154 1.7 6.1 0.00 0.00 0.00 56 1012.8
20260507211537 56 154 0.9 7.0 0.00 0.00 0.00 51 1012.6
20260507210105 58 154 1.7 7.0 0.00 0.00 0.00 49 1012.4
20260507204535 56 154 1.7 7.0 0.00 0.00 0.00 48 1012.4
20260507203035 56 154 2.6 7.0 0.00 0.00 0.00 50 1012.4
20260507201536 58 154 1.7 5.2 0.00 0.00 0.00 50 1012.5
20260507200050 59 153 0.9 6.1 0.00 0.00 0.00 49 1012.3
20260507194532 60 153 0.9 3.5 0.00 0.00 0.00 50 1012.4
20260507193054 59 154 0.9 4.3 0.00 0.00 0.00 49 1012.6
20260507191530 59 154 0.9 7.0 0.00 0.00 0.00 51 1012.7
20260507190033 59 154 1.7 4.3 0.00 0.00 0.00 50 1012.7
20260507184524 57 154 0.9 6.1 0.00 0.00 0.00 53 1013.0
20260507183035 57 153 0.9 4.3 0.00 0.00 0.00 49 1013.0
20260507181524 58 154 1.7 6.1 0.00 0.00 0.00 49 1013.0
20260507180026 59 154 0.9 6.1 0.00 0.00 0.00 53 1013.0
20260507174522 59 153 0.9 3.5 0.00 0.00 0.00 51 1013.1
20260507173021 58 154 0.9 6.1 0.00 0.00 0.00 51 1013.0
20260507171520 58 154 0.9 4.3 0.00 0.00 0.00 52 1013.1
20260507170019 59 154 1.7 5.2 0.00 0.00 0.00 49 1013.2
20260507164517 59 154 0.0 4.3 0.00 0.00 0.00 54 1013.2
20260507163016 58 154 0.0 2.6 0.00 0.00 0.00 51 1013.4
20260507161519 57 154 1.7 7.0 0.00 0.00 0.00 57 1013.2
20260507160027 58 154 1.7 3.5 0.00 0.00 0.00 49 1013.2
20260507154514 57 154 0.9 4.3 0.00 0.00 0.00 53 1013.5
20260507153018 58 154 0.9 4.3 0.00 0.00 0.00 55 1013.3
20260507151509 58 154 0.9 5.2 0.00 0.00 0.00 52 1013.5
20260507150006 57 154 0.0 1.7 0.00 0.00 0.00 61 1013.5
20260507144508 57 154 0.0 3.5 0.00 0.00 0.00 58 1013.6
20260507143002 56 154 0.9 3.5 0.00 0.00 0.00 60 1013.6
20260507141619 54 154 0.0 2.6 0.00 0.00 0.00 64 1013.7
20260507140106 53 154 0.9 1.7 0.00 0.00 0.00 65 1014.0
20260507134603 53 154 0.0 2.6 0.00 0.00 0.00 71 1014.2
20260507133050 51 154 0.0 2.6 0.00 0.00 0.00 71 1014.3
20260507131547 50 154 0.0 1.7 0.00 0.00 0.00 74 1014.1
20260507130044 48 154 0.0 0.9 0.00 0.00 0.00 78 1014.2
20260507124538 46 154 0.0 2.6 0.00 0.00 0.00 82 1014.3
20260507123042 44 154 0.0 1.7 0.00 0.00 0.00 94 1014.1
20260507121532 42 154 0.0 0.0 0.00 0.00 0.00 95 1014.2
20260507120031 40 154 0.0 0.0 0.00 0.00 0.00 94 1014.2
20260507114528 38 154 0.0 0.0 0.00 0.00 0.00 94 1014.3
20260507113030 37 154 0.0 0.0 0.00 0.00 0.00 94 1014.2
20260507111526 0 0.0 0.0 0.00 0.00 0.00 1014.0
20260507110023 0 0.0 0.0 0.00 0.00 0.00 1014.0
20260507104516 0 0.0 0.0 0.00 0.00 0.00 1013.8
20260507103014 0 0.0 0.0 0.00 0.00 0.00 1013.7
20260507101515 0 143 0.0 0.0 0.00 0.00 0.00 1013.6
20260507100008 36 154 0.0 0.0 0.00 0.02 0.00 93 1013.5
20260507094506 36 154 0.0 0.0 0.00 0.02 0.00 93 1013.4
20260507093006 36 154 0.0 0.0 0.00 0.02 0.00 93 1013.5
20260507091504 35 154 0.0 0.0 0.00 0.02 0.00 93 1013.5
20260507090002 35 154 0.0 0.0 0.00 0.07 0.00 92 1013.6